Torna al catalogo

STARLINK-31650

AttivoComunicazioniVLEO
NORAD 59512·PAYLOAD·🇺🇸 United States

Lanciato Apr 17, 2024 da Cape Canaveral Space Force Station

Loading…

Prossimi Passaggi (prossime 24 ore)

TLE

AggiornatoSource: CelesTrak SupGP

Epoca: Sep 15, 2026, 02:22 UTC

1 59512C 24073B   26258.09909722  .00046524  00000+0  16849-2 0  2587
2 59512  43.0023 328.4354 0001437 265.0491  42.7019 15.27560199    16

Traccia STARLINK-31650 in tempo reale con AllMySat

Download on the App Store